Location: Canazei
(46.4667°N, 11.7667°E)
Time: 06:37:52
(UTC+00:00)

Okean 2 Rocket - Pass Details

Date: 21 April 2021
Orbit: 616 x 642 km, 82.5° (Epoch: 15 May)

Event Time Altitude Azimuth Distance (km) Brightness Sun altitude
Rises 01:55:30 0° 356° (N) 2,925 7.1 -21.1°
Reaches altitude 10° 01:57:50 10° 2° (N) 2,009 6.3 -20.8°
Maximum altitude 02:02:07 46° 77° (ENE) 837 4.0 -20.3°
Drops below altitude 10° 02:06:21 10° 151° (SSE) 1,980 5.5 -19.8°
Enters shadow 02:07:06 - 153° (SSE) 2,271 5.8 -19.7°
